STARLINK-2193, 47770

Orbit data source: Space-Track

STARLINK-2193, 47770 is a payload satellite owned by SpaceX/Seattle (US) in LEO that was launched on Thu, 04 Mar 2021 UTC via an FALCON 9 launch vehicle from the Air Force Eastern Test Range (AFETR). Payload-class satellites include a variety of spacecraft equipped with specific instruments for various scientific and technological missions. These include communications satellites like Starlink; space stations such as the ISS; scientific satellites like the Hubble; Earth observation satellites from companies like Planet Labs, Umbra, and HawkEye 360; GPS; miniature CubeSats for education and research; and military/defense satellites.

Loading next visibility...
Identifier
47770, 2021-017BA
Orbit
LEO
Country
Flag of USUS
Related business
Manufacturer
SpaceX/Seattle
Mission
Operational Commercial Communications
Bus & Motor
STARLINK, Unknown motor
Mass
260 kg wet, ~248 kg dry
Launch date (UTC)
2021-03-04 (5 years ago)
Launch vehicle
FALCON 9
Launch site
Air Force Eastern Test Range (AFETR)
Object type
Payload
Rocket body
Debris
Shape & HBR
Box + 1 Pan, 10.1 m
Radar Cross Section
13.562 m², Large (>1 m²)

Expand to show TLE details & history
Last TLE update: 10 hours ago

TLE from 10 hours ago
0 STARLINK-2193
1 47770U 21017BA  25346.97295433  .00002385  00000-0  17897-3 0  9991
2 47770  53.0535 235.9061 0001262  85.4278 274.6855 15.06389909264750
Epoch: 2025-12-12T23:21Z
TLE epoch observation values (Epoch: 2025-12-12T23:21:03.254Z)
Latitude
-0.00001°
Longitude
163.73563°
Altitude
548.05 km
Speed
7.589 km/s
True Right ascension
15h 43m 37s
True Declination
0° 00' 00"
Sunlit
Object was in daylight at epoch
Visualization orbit readout
Latitude
Unknown
Longitude
Unknown
Altitude
Unknown
Speed
Unknown
Apparent Right ascension
Unknown
Apparent Declination
Unknown
Sunlit
N/A
Visualization observer readout
Local Sidereal Time
07:26:12
Azimuth
Unknown
Elevation
Unknown
Doppler factor
Unknown
Orbital elements
Apogee altitude
548.387 km
Perigee altitude
546.639 km
Semi-major axis
6,925.65 km
Eccentricity
0.00013
Inclination
53.0535°
RAAN
235.9061°
Arg. of periapsis
85.4278°
True anomaly
274.67109°
Mean anomaly
274.6855°
Eccentric anomaly
274.67829°
Mean motion
3.76576 °/min
Orbital period
95.6 mins
BSTAR
0.00017897
Loading maneuver chart data...
Computing Atmospheric mass density...

Documentation

Showing up to 5 results
|